This demonstration page uses our WeatherBlox Daily Observations layout. Learn more.

Left ArrowRight Arrow

36.17497, -115.13722

Hourly Observations for December 9, 2019

Temp ( °F °C ) Dew Point ( °F °C ) Humidity (%) Winds ( mph kmh ) Pressure ( in mb ) Visibility ( mi km ) Precip ( " mm )
12:53 am 00:53 Cloudy 53 11.7 40 4.4 61 61 NNW 9 15 30.02 1017 10 16 0.00 0.00
1:53 am 01:53 Cloudy 53 11.7 40 4.4 61 61 N 12 19 30.02 1017 10 16 0.00 0.00
2:53 am 02:53 Mostly Cloudy 52 11.1 40 4.4 64 64 NNW 10 17 30.02 1017 10 16 0.00 0.00
3:53 am 03:53 Clear 50 10 39 3.9 66 66 WNW 8 13 30.03 1017 10 16 0.00 0.00
4:53 am 04:53 Clear 51 10.6 38 3.3 61 61 N 8 13 30.04 1017 10 16 0.00 0.00
5:53 am 05:53 Clear 50 10 38 3.3 63 63 NNW 14 22 30.05 1018 10 16 0.00 0.00
6:53 am 06:53 Sunny 50 10 37 2.8 61 61 NNW 15 24 30.07 1018 10 16 0.00 0.00
7:53 am 07:53 Sunny 51 10.6 37 2.8 59 59 NNW 12 19 30.09 1019 10 16 0.00 0.00
8:53 am 08:53 Sunny 56 13.3 36 2.2 47 47 NNW 9 15 30.10 1019 10 16 0.00 0.00
9:53 am 09:53 Sunny 59 15 35 1.7 41 41 NNW 15 24 30.10 1019 10 16 0.00 0.00
10:53 am 10:53 Sunny 60 15.6 32 0 35 35 NNW 18 30 30.11 1020 10 16 0.00 0.00
11:53 am 11:53 Sunny 62 16.7 33 0.6 34 34 NW 16 26 30.09 1019 10 16 0.00 0.00
12:53 pm 12:53 Sunny 62 16.7 32 0 32 32 NW 12 19 30.07 1018 10 16 0.00 0.00
1:53 pm 13:53 Sunny 63 17.2 31 -0.6 30 30 NNW 8 13 30.07 1018 10 16 0.00 0.00
2:53 pm 14:53 Sunny 62 16.7 30 -1.1 30 30 NNW 14 22 30.08 1019 10 16 0.00 0.00
3:53 pm 15:53 Sunny 61 16.1 29 -1.7 30 30 N 13 20 30.10 1019 10 16 0.00 0.00
4:53 pm 16:53 Clear 60 15.6 29 -1.7 31 31 N 5 7 30.11 1020 10 16 0.00 0.00
5:53 pm 17:53 Clear 58 14.4 30 -1.1 35 35 N 7 11 30.13 1020 10 16 0.00 0.00
6:53 pm 18:53 Clear 55 12.8 32 0 42 42 NNW 8 13 30.16 1021 10 16 0.00 0.00
7:53 pm 19:53 Clear 55 12.8 31 -0.6 40 40 N 6 9 30.18 1022 10 16 0.00 0.00
8:53 pm 20:53 Clear 52 11.1 32 0 47 47 N 5 7 30.20 1023 10 16 0.00 0.00
9:53 pm 21:53 Clear 53 11.7 32 0 45 45 N 7 11 30.22 1023 10 16 0.00 0.00
10:53 pm 22:53 Clear 50 10 33 0.6 52 52 NW 5 7 30.22 1023 10 16 0.00 0.00
11:53 pm 23:53 Clear 49 9.4 32 0 52 52 NNW 9 15 30.22 1024 10 16 0.00 0.00

Powered by AerisWeather